Regional Weather Roundup
Issued by NWS

Home | Current Version | Previous Version | Graphics & Text | Print | Product List | Glossary On
Versions: 1 2 3 4 5 6 7 8 9 10 11 12 13 14 15 16 17 18 19 20 21 22 23 24 25 26 27
000
ASUS45 KSLC 191410
RWRUT

UTAH REGIONAL WEATHER ROUNDUP
NATIONAL WEATHER SERVICE SALT LAKE CITY UT
800 AM MDT WED JUL 19 2017

UTZ001>011-023>025-191500-

NORTHERN UTAH

CITY           SKY/WX    TMP DP  RH WIND       PRES   REMARKS
BRIGHAM CITY   PTSUNNY   72  49  43 CALM      30.05R
DUGWAY         PTSUNNY   77  46  32 NE6       30.08R
HILL AFB       PTSUNNY   79  53  40 SE7       30.09R
LOGAN          PTSUNNY   68  53  58 VRB3      30.09R
OGDEN          PTSUNNY   78  53  41 S8        30.05R
SALT LAKE CITY CLOUDY    87  55  33 S18G28    30.03R
TOOELE VALLEY  PTSUNNY   86  54  32 S21G26    30.04R
WENDOVER       MOSUNNY   81  29  15 S6        30.07R
HEBER CITY     CLOUDY    66  52  59 CALM      30.19R
WEST JORDAN    CLOUDY    82  62  50 SE25      30.08R

$$

UTZ011>015-024>027-191500-

CENTRAL/NORTHEAST UTAH

CITY           SKY/WX    TMP DP  RH WIND       PRES   REMARKS
PROVO AIRPORT  PTSUNNY   75  54  46 SE9       30.13R
MOAB/CANYONLAN PTSUNNY   86  54  33 SE14      30.14S
DELTA          CLOUDY    77  55  47 S13       30.14R
PRICE          CLOUDY    75  53  46 E7        30.25R
ROOSEVELT      CLOUDY    68  54  60 CALM      30.20R
VERNAL         CLOUDY    74  51  44 W3        30.19R

$$

UTZ013>016-019>022-027-191500-

SOUTHERN UTAH

CITY           SKY/WX    TMP DP  RH WIND       PRES   REMARKS
BRYCE CANYON   CLOUDY    59  57  93 W3        30.40S
CEDAR CITY     LGT RAIN  65  60  84 S7        30.25S
MILFORD        CLOUDY    74  56  53 S16       30.19R
ST GEORGE      CLOUDY    77  66  68 SW3       30.10R
HANKSVILLE     CLOUDY    82  52  34 SE9       30.16S
BLANDING       MOSUNNY   73  55  52 CALM      30.38R

$$

REGIONAL REPORTS     COLORADO/ARIZONA

CITY           SKY/WX    TMP DP  RH WIND       PRES   REMARKS
CRAIG, CO      CLOUDY    62  49  62 CALM      30.30R
GRAND JUNCTION MOSUNNY   79  51  37 SE16      30.20R
RIFLE, CO      CLOUDY    69  54  58 N3        30.28R
MONTROSE, CO   MOSUNNY   74  51  44 E9        30.31S
CORTEZ, CO     SUNNY     75  55  49 W3        30.30S
COLORADO CITY    N/A     68  64  88 SE9       30.26R
PAGE, AZ       MOSUNNY   74  62  66 S5        30.19R
GRAND CANYON   PTSUNNY   64  58  80 NE3       30.35F
KINGMAN, AZ    RAIN      69  68  96 N8        30.16R
FLAGSTAFF, AZ  SUNNY     59  58  96 CALM      30.37S

$$

REGIONAL REPORTS    NEVADA/IDAHO/WYOMING

CITY           SKY/WX    TMP DP  RH WIND       PRES   REMARKS
LAS VEGAS, NV  CLOUDY    88  64  44 E15G24    29.99R THUNDER
ELY, NY        MOSUNNY   67  45  45 S13       30.24R
ELKO, NV       MOSUNNY   58  25  28 E6        30.17R
POCATELLO, ID  MOSUNNY   63  43  48 SW6       30.11R
BURLEY, ID     SUNNY     62  46  55 S3        30.08R
FORT BRIDGER,  CLOUDY    67  51  55 E12       30.31S
EVANSTON, WY   LGT RAIN  66  49  54 SE8       30.28S
ROCK SPRINGS,  CLOUDY    66  39  37 NE6       30.29R
KEMMERER, WY     N/A     63  46  55 CALM      30.32R

$$




USA.gov is the U.S. government's official web portal to all federal, state and local government web resources and services.